Miscellaneous Local Product
Issued by NWS North Platte, NE

Home | Current Version | Previous Version | Graphics & Text | Print | Product List | Glossary On
Versions: 1 2 3 4 5 6 7 8 9 10 11 12 13 14 15 16 17 18 19 20 21 22 23 24 25 26 27 28 29 30 31 32 33 34 35 36 37 38 39 40 41 42 43 44 45 46 47 48 49 50
117
AXUS43 KLBF 250210
MISLBF


WESTERN AND NORTH CENTRAL NEBRASKA HOURLY WEATHER ROUNDUP
NATIONAL WEATHER SERVICE NORTH PLATTE NE
900 PM CDT SUN JUL 24 2016

NOTE: "FAIR" INDICATES FEW OR NO CLOUDS BELOW 12,000 FEET WITH NO
SIGNIFICANT WEATHER AND/OR OBSTRUCTIONS TO VISIBILITY.

NOTE: STATIONS NOT REPORTING VARIABLES SUCH AS SKY/WEATHER OR
PRESSURE ARE PROVIDED BY RAWS AND APRS NETWORKS AND ARE NOT UNDER
NATIONAL WEATHER SERVICE QUALITY CONTROL.

...OBSERVATIONS IN AND NEAR THE EASTERN PANHANDLE OF NEBRASKA...

CITY           SKY/WX    TMP DP  RH WIND       PRES   REMARKS
PINE RIDGE     CLEAR     79  50  36 E9        30.11R
CHADRON        PTCLDY    82  50  32 SE10      30.08R
ALLIANCE       CLOUDY    76  52  43 SE14      30.13R
SIDNEY         CLOUDY    69  56  62 S25       30.16R
CRESCENT LAKE    N/A     74  56  53 E9          N/A
$$

...OBSERVATIONS IN NORTHERN NEBRASKA AND FAR SOUTHERN SOUTH DAKOTA...

CITY           SKY/WX    TMP DP  RH WIND       PRES   REMARKS
WINNER         FAIR      79  51  37 E7        30.08R
VALENTINE      CLEAR     80  50  34 SE6       30.10R
THEDFORD       CLOUDY    79  58  47 SE7       30.15R
AINSWORTH      CLOUDY    75  65  72 NE5       30.12R
O`NEILL        CLOUDY    76  62  61 CALM      30.10R
ORD            CLEAR     75  64  68 E3        30.09R
BROKEN BOW     PTCLDY    72  64  76 SE3       30.12R
VALENTINE NWR    N/A     82  55  39 E6          N/A
BUTTE            N/A     75  60  60 E3          N/A
HALSEY           N/A     78  57  47 SE6         N/A
EWING            N/A     69  63  82 CALM        N/A
$$

...OBSERVATIONS IN SOUTHWEST NEBRASKA AND FAR NORTHEAST COLORADO...

CITY           SKY/WX    TMP DP  RH WIND       PRES   REMARKS
WRAY           CLOUDY    79  55  44 NE17      30.17R
HOLYOKE          N/A     66  63  88 W16       30.23F THUNDER
IMPERIAL       TSTM      73  63  70 S13       30.15F
OGALLALA       CLOUDY    76  58  53 SE13G30   30.10F
NORTH PLATTE   CLOUDY    73  65  75 SE6       30.12R
MCCOOK         MOCLDY    76  59  55 NE10      30.11R
LEXINGTON      CLOUDY    74  64  72 NE5       30.12R
STAPLETON        N/A     73  63  70 CALM        N/A
GOTHENBURG       N/A     78  58  49 CALM        N/A
CALLAWAY         N/A     75  65  71 E3          N/A
$$

...OBSERVATIONS IN CENTRAL LINCOLN COUNTY AREA...

CITY           SKY/WX    TMP DP  RH WIND       PRES   REMARKS
N.P. AIRPORT   CLOUDY    73  65  75 SE6       30.12R
N.P. DOWNTOWN    N/A     77  65  65 CALM        N/A
N.P. SOUTHEAST   N/A     76  65  68 CALM        N/A
N.P. HILLCREST   N/A     74  63  69 E8          N/A
$$

...SOME OBSERVATIONS FROM AROUND THE REGION...

CITY           SKY/WX    TMP DP  RH WIND       PRES   REMARKS
DENVER         CLOUDY    72  56  57 SE15      30.19R
LARAMIE        CLOUDY    75  28  17 NE7       30.27R
CHEYENNE       CLOUDY    65  53  65 S22G29    30.27R
SCOTTSBLUFF    CLOUDY    76  55  48 E13       30.12R
RAPID CITY     CLEAR     77  51  40 SE9       30.08R
BISMARCK       CLEAR     75  60  59 E8        30.01S
PIERRE         CLEAR     79  50  36 CALM      30.04R
SIOUX FALLS    PTCLDY    73  64  73 W3        30.05R
OMAHA          PTCLDY    76  68  76 N5        30.00S
GRAND ISLAND   CLEAR     74  63  68 NE5       30.08R
KANSAS CITY    CLOUDY    81  69  67 NE10      29.98R
WICHITA        PTCLDY    91  69  48 E6        29.91R HX  96
OKLAHOMA CITY  PTCLDY    90  71  53 SE8       29.92R HX  96
DALLAS         PTCLDY    92  69  47 SE9       29.89R HX  97
AMARILLO       CLEAR     88  58  36 SE15      30.04R
DODGE CITY     CLEAR     85  63  47 E5        29.97R
HAYS           CLEAR     81  61  50 NE16      30.01R
GOODLAND       CLOUDY    80  59  48 E13       30.10R
$$




USA.gov is the U.S. government's official web portal to all federal, state and local government web resources and services.